Location: Unspecified
(41.9031°N, 12.4386°E)
Time: 06:08:34
(UTC+01:00)

ISS - Pass Details

Date: 22 February 2020
Orbit: 415 x 423 km, 51.6° (Epoch: 27 February)

Event Time Altitude Azimuth Distance (km) Brightness Sun altitude
Exits shadow 05:06:47 - 173° (S) 1,624 -0.8 -21.2°
Reaches altitude 10° 05:07:18 10° 166° (SSE) 1,491 -0.9 -21.1°
Maximum altitude 05:09:14 15° 131° (SE) 1,245 -0.8 -20.8°
Drops below altitude 10° 05:11:11 10° 95° (E) 1,500 0.2 -20.4°
Sets 05:13:58 0° 71° (ENE) 2,371 1.5 -19.9°
